Find OneWeb SL0269

NORAD ID: 48987 Int'l Des: 2021-060 Owner: ONEWEBN Country: UK Constellation: oneweb operational
LEOCIRCULARPOLARONEWEB_TYPE

当前视图

正在加载3D地球...

About OneWeb SL0269

OneWeb SL0269 (NORAD 48987) is a oneweb constellation satellite launched Jul 1, 2021 by ONEWEBN of UK. It operates in LEO, CIRCULAR, POLAR, ONEWEB_TYPE orbit with a mass of 148.00 kg.

关于 OneWeb SL0269

正在加载描述...

即将过境

Passes for default location (London). Set your location on the main map for personalized predictions.

高度历史

Loading altitude history...

两行轨道根数

1 48987U 21060W 26178.19769288 .00000141 00000-0 33571-3 0 9997
2 48987 87.9079 226.7952 0002075 90.8224 269.3145 13.16594963240946
Epoch: Jun 27, 2026 • Age: 8 hours

当前状态

高度 1200.2 km
速度 7.26 km/s
星下点 26.10°N, 62.23°W
发射日期 Jul 1, 2021
运行时间 4.9 years
类型 internet

技术详情

分类 Payload
质量 148.00 kg
干质量 140.00 kg
总质量 148.00 kg
长度 1.30 m
直径 1.00 m
跨度 5.00 m
形状 Trapezoid+2 pan
制造商 ONEWUS
平台类型 ARROW
阶段状态 In Orbit
所有者/国家 ONEWEBN/UK

Most Searched